�������l�o���
Date,Time,MP-1(��Sv/h),MP-2(��Sv/h),MP-3(��Sv/h),MP-4(��Sv/h),MP-5(��Sv/h),MP-6(��Sv/h),MP-7(��Sv/h),MP-8(��Sv/h),����,����(m/s),���J
2019/05/10,00:00,0.762,1.117,0.764,1.406,1.027,0.440,0.771,0.729,�k�k��,6.2,��
2019/05/10,00:10,0.763,1.114,0.767,1.406,1.026,0.439,0.771,0.728,�k,5.5,��
2019/05/10,00:20,0.763,1.117,0.767,1.405,1.028,0.441,0.771,0.728,�k,6.7,��
2019/05/10,00:30,0.762,1.116,0.765,1.407,1.027,0.441,0.771,0.730,�k�k��,4.8,��
2019/05/10,00:40,0.762,1.119,0.767,1.406,1.026,0.442,0.770,0.727,�k�k��,3.4,��
2019/05/10,00:50,0.763,1.115,0.765,1.407,1.028,0.441,0.771,0.728,�k��,3.0,��
2019/05/10,01:00,0.761,1.116,0.764,1.405,1.027,0.441,0.772,0.729,�k��,4.3,��
2019/05/10,01:10,0.761,1.116,0.765,1.405,1.027,0.440,0.773,0.729,�k�k��,4.1,��
2019/05/10,01:20,0.761,1.115,0.766,1.402,1.027,0.443,0.773,0.728,�k�k��,4.7,��
2019/05/10,01:30,0.763,1.115,0.764,1.404,1.028,0.442,0.771,0.729,�k�k��,4.7,��
2019/05/10,01:40,0.761,1.116,0.766,1.406,1.022,0.441,0.771,0.728,�k�k��,5.0,��
2019/05/10,01:50,0.763,1.116,0.765,1.407,1.026,0.441,0.770,0.728,�k��,5.1,��
2019/05/10,02:00,0.762,1.113,0.767,1.405,1.027,0.442,0.772,0.727,�k��,4.9,��
2019/05/10,02:10,0.761,1.117,0.765,1.406,1.025,0.442,0.772,0.728,�k��,3.7,��
2019/05/10,02:20,0.762,1.115,0.767,1.409,1.026,0.442,0.772,0.727,�k�k��,2.9,��
2019/05/10,02:30,0.761,1.115,0.766,1.406,1.027,0.441,0.771,0.728,�k�k��,4.2,��
2019/05/10,02:40,0.760,1.114,0.766,1.406,1.026,0.442,0.772,0.728,�k��,4.2,��
2019/05/10,02:50,0.760,1.116,0.767,1.404,1.028,0.442,0.771,0.727,�k��,3.7,��
2019/05/10,03:00,0.764,1.117,0.766,1.408,1.026,0.441,0.773,0.729,���k��,4.6,��
2019/05/10,03:10,0.761,1.115,0.766,1.405,1.026,0.442,0.771,0.729,���k��,4.1,��
2019/05/10,03:20,0.760,1.116,0.768,1.407,1.025,0.441,0.771,0.729,���k��,5.3,��
2019/05/10,03:30,0.762,1.118,0.767,1.405,1.028,0.440,0.771,0.729,�k��,6.5,��
2019/05/10,03:40,0.763,1.115,0.767,1.407,1.027,0.441,0.770,0.729,�k��,7.0,��
2019/05/10,03:50,0.762,1.115,0.766,1.407,1.028,0.440,0.773,0.730,���k��,6.5,��
2019/05/10,04:00,0.762,1.116,0.768,1.405,1.027,0.440,0.771,0.729,�k��,7.2,��
2019/05/10,04:10,0.760,1.116,0.768,1.405,1.027,0.441,0.772,0.729,���k��,6.1,��
2019/05/10,04:20,0.762,1.117,0.767,1.408,1.028,0.440,0.771,0.729,���k��,6.6,��
2019/05/10,04:30,0.762,1.116,0.767,1.407,1.027,0.441,0.771,0.729,�k��,6.3,��
2019/05/10,04:40,0.764,1.114,0.768,1.404,1.028,0.441,0.771,0.728,�k��,4.8,��
2019/05/10,04:50,0.762,1.117,0.767,1.408,1.024,0.440,0.771,0.728,���k��,2.9,��
2019/05/10,05:00,0.762,1.114,0.766,1.407,1.024,0.440,0.771,0.729,�k��,1.9,��
2019/05/10,05:10,0.762,1.115,0.765,1.406,1.026,0.439,0.770,0.728,�k��,2.9,��
2019/05/10,05:20,0.761,1.114,0.764,1.406,1.027,0.440,0.770,0.728,�k��,1.7,��
2019/05/10,05:30,0.761,1.115,0.768,1.407,1.028,0.440,0.770,0.728,�k��,2.9,��
2019/05/10,05:40,0.761,1.115,0.766,1.406,1.027,0.438,0.772,0.729,�k�k��,3.4,��
2019/05/10,05:50,0.761,1.117,0.765,1.406,1.026,0.440,0.771,0.728,�k�k��,3.1,��
2019/05/10,06:00,0.762,1.117,0.765,1.408,1.025,0.438,0.773,0.728,�k,3.7,��
2019/05/10,06:10,0.762,1.117,0.767,1.409,1.028,0.441,0.772,0.729,�k,3.7,��
2019/05/10,06:20,0.762,1.116,0.770,1.407,1.027,0.440,0.771,0.728,�k��,1.1,��
2019/05/10,06:30,0.762,1.121,0.767,1.409,1.026,0.440,0.773,0.727,���k��,2.0,��
2019/05/10,06:40,0.764,1.115,0.768,1.408,1.027,0.438,0.771,0.729,���k��,4.1,��
2019/05/10,06:50,0.763,1.113,0.768,1.407,1.027,0.438,0.771,0.730,���k��,4.4,��
2019/05/10,07:00,0.761,1.114,0.768,1.410,1.028,0.437,0.772,0.730,��,3.5,��
2019/05/10,07:10,0.762,1.114,0.767,1.406,1.026,0.438,0.773,0.728,���k��,4.5,��
2019/05/10,07:20,0.762,1.112,0.765,1.408,1.027,0.438,0.773,0.728,���k��,5.0,��
2019/05/10,07:30,0.763,1.115,0.767,1.411,1.027,0.438,0.770,0.729,�k��,3.5,��
2019/05/10,07:40,0.763,1.114,0.766,1.410,1.026,0.438,0.770,0.730,�k�k��,6.9,��
2019/05/10,07:50,0.762,1.114,0.767,1.410,1.027,0.439,0.770,0.730,�k��,5.3,��
2019/05/10,08:00,0.761,1.114,0.766,1.410,1.028,0.439,0.771,0.729,�k�k��,5.0,��
2019/05/10,08:10,0.761,1.114,0.767,1.410,1.027,0.439,0.772,0.728,�k��,6.1,��
2019/05/10,08:20,0.764,1.115,0.767,1.409,1.028,0.438,0.772,0.726,���k��,7.5,��
2019/05/10,08:30,0.762,1.116,0.761,1.410,1.028,0.439,0.772,0.727,���k��,7.2,��
2019/05/10,08:40,0.763,1.112,0.766,1.410,1.031,0.438,0.771,0.728,���k��,6.8,��
2019/05/10,08:50,0.763,1.113,0.767,1.411,1.028,0.438,0.773,0.727,���k��,6.5,��
2019/05/10,09:00,0.762,1.114,0.766,1.410,1.029,0.440,0.773,0.727,���k��,6.3,��
2019/05/10,09:10,0.764,1.114,0.767,1.411,1.031,0.440,0.772,0.726,��,6.2,��
2019/05/10,09:20,0.762,1.109,0.766,1.411,1.030,0.439,0.772,0.729,��,5.9,��
2019/05/10,09:30,0.761,1.114,0.768,1.412,1.029,0.438,0.773,0.729,��,4.7,��
2019/05/10,09:40,0.763,1.116,0.766,1.412,1.031,0.440,0.772,0.728,���k��,4.7,��
2019/05/10,09:50,0.763,1.116,0.768,1.413,1.030,0.441,0.773,0.726,�k��,3.0,��
2019/05/10,10:00,0.765,1.114,0.766,1.412,1.031,0.439,0.773,0.727,�k�k��,3.4,��
2019/05/10,10:10,0.763,1.121,0.765,1.414,1.030,0.440,0.773,0.727,��,3.4,��
2019/05/10,10:20,0.764,1.123,0.767,1.415,1.029,0.438,0.770,0.727,��쓌,3.9,��
2019/05/10,10:30,0.764,1.123,0.766,1.412,1.030,0.439,0.771,0.725,�쓌,4.8,��
2019/05/10,10:40,0.761,1.122,0.764,1.414,1.030,0.440,0.772,0.728,�쓌,7.3,��
2019/05/10,10:50,0.764,1.123,0.763,1.412,1.034,0.440,0.771,0.727,�쓌,7.5,��
2019/05/10,11:00,0.763,1.117,0.766,1.414,1.031,0.440,0.771,0.728,�쓌,7.7,��
2019/05/10,11:10,0.765,1.118,0.768,1.411,1.033,0.439,0.771,0.728,��쓌,7.3,��
2019/05/10,11:20,0.764,1.120,0.765,1.411,1.031,0.439,0.772,0.727,��쓌,9.8,��
2019/05/10,11:30,0.766,1.123,0.767,1.411,1.033,0.440,0.772,0.728,��쓌,8.9,��
2019/05/10,11:40,0.765,1.118,0.769,1.411,1.034,0.439,0.772,0.727,��쓌,9.8,��
2019/05/10,11:50,0.765,1.121,0.768,1.412,1.033,0.440,0.772,0.728,��쓌,9.2,��
2019/05/10,12:00,0.766,1.123,0.767,1.413,1.032,0.440,0.771,0.726,��쓌,9.4,��
2019/05/10,12:10,0.765,1.122,0.767,1.409,1.033,0.441,0.773,0.727,��쓌,10.3,��
2019/05/10,12:20,0.765,1.123,0.767,1.413,1.037,0.440,0.771,0.727,��,7.6,��
2019/05/10,12:30,0.763,1.121,0.768,1.414,1.034,0.441,0.771,0.728,��,7.8,��
2019/05/10,12:40,0.765,1.122,0.768,1.412,1.033,0.440,0.772,0.727,��,7.8,��
2019/05/10,12:50,0.766,1.122,0.770,1.413,1.035,0.442,0.773,0.727,��쓌,9.4,��
2019/05/10,13:00,0.767,1.125,0.770,1.412,1.037,0.442,0.772,0.728,��쓌,10.3,��
2019/05/10,13:10,0.765,1.124,0.769,1.413,1.035,0.440,0.773,0.728,��쓌,11.3,��
2019/05/10,13:20,0.765,1.121,0.770,1.413,1.035,0.439,0.771,0.728,��쓌,9.7,��
2019/05/10,13:30,0.764,1.118,0.768,1.412,1.035,0.441,0.771,0.727,��쓌,11.6,��
2019/05/10,13:40,0.766,1.120,0.769,1.412,1.036,0.439,0.772,0.728,��쓌,10.2,��
2019/05/10,13:50,0.764,1.120,0.769,1.410,1.037,0.441,0.772,0.728,��쓌,10.2,��
2019/05/10,14:00,0.766,1.120,0.769,1.412,1.036,0.439,0.771,0.729,��,8.6,��
2019/05/10,14:10,0.765,1.119,0.771,1.410,1.036,0.439,0.772,0.730,��쓌,12.0,��
2019/05/10,14:20,0.766,1.121,0.768,1.413,1.035,0.441,0.770,0.727,��쓌,10.7,��
2019/05/10,14:30,0.764,1.123,0.768,1.414,1.038,0.439,0.772,0.729,��쓌,10.0,��
2019/05/10,14:40,0.766,1.120,0.769,1.415,1.037,0.439,0.773,0.726,��쓌,10.4,��
2019/05/10,14:50,0.764,1.116,0.768,1.414,1.037,0.440,0.770,0.727,��쓌,11.3,��
2019/05/10,15:00,0.766,1.123,0.768,1.415,1.038,0.442,0.770,0.726,��,11.7,��
2019/05/10,15:10,0.766,1.122,0.770,1.413,1.037,0.440,0.772,0.726,��,12.2,��
2019/05/10,15:20,0.765,1.122,0.771,1.413,1.036,0.440,0.772,0.727,��,10.9,��
2019/05/10,15:30,0.765,1.124,0.771,1.415,1.038,0.440,0.771,0.727,��,7.7,��
2019/05/10,15:40,0.766,1.121,0.770,1.413,1.038,0.441,0.771,0.729,��,7.9,��
2019/05/10,15:50,0.766,1.124,0.769,1.414,1.037,0.441,0.772,0.728,��,8.9,��
2019/05/10,16:00,0.764,1.126,0.770,1.414,1.037,0.441,0.773,0.728,��,9.0,��
2019/05/10,16:10,0.767,1.127,0.770,1.412,1.036,0.442,0.772,0.727,��,9.9,��
2019/05/10,16:20,0.765,1.123,0.769,1.415,1.036,0.440,0.771,0.727,��,8.6,��
2019/05/10,16:30,0.766,1.124,0.771,1.414,1.036,0.440,0.773,0.728,��,9.2,��
2019/05/10,16:40,0.767,1.125,0.772,1.415,1.037,0.442,0.771,0.728,��,8.9,��
2019/05/10,16:50,0.764,1.125,0.772,1.412,1.038,0.443,0.772,0.729,��,8.4,��
2019/05/10,17:00,0.763,1.126,0.770,1.413,1.038,0.443,0.773,0.728,��,8.3,��
2019/05/10,17:10,0.766,1.129,0.771,1.415,1.036,0.442,0.771,0.728,��,7.5,��
2019/05/10,17:20,0.763,1.128,0.770,1.413,1.037,0.443,0.773,0.728,��,7.3,��
2019/05/10,17:30,0.764,1.128,0.769,1.413,1.037,0.442,0.771,0.729,��,7.7,��
2019/05/10,17:40,0.765,1.129,0.771,1.413,1.039,0.441,0.772,0.731,��,8.1,��
2019/05/10,17:50,0.764,1.129,0.771,1.415,1.035,0.441,0.769,0.729,��,7.3,��
2019/05/10,18:00,0.767,1.125,0.769,1.416,1.037,0.442,0.770,0.730,��,6.7,��
2019/05/10,18:10,0.764,1.130,0.769,1.415,1.036,0.441,0.769,0.731,��,5.9,��
2019/05/10,18:20,0.767,1.127,0.771,1.415,1.038,0.443,0.772,0.731,��,5.9,��
2019/05/10,18:30,0.765,1.129,0.770,1.419,1.038,0.442,0.770,0.728,��,4.7,��
2019/05/10,18:40,0.767,1.129,0.770,1.417,1.037,0.443,0.771,0.730,��,4.0,��
2019/05/10,18:50,0.767,1.125,0.771,1.418,1.038,0.443,0.773,0.730,��쐼,4.1,��
2019/05/10,19:00,0.767,1.131,0.772,1.418,1.040,0.442,0.771,0.731,�쐼,3.0,��
2019/05/10,19:10,0.764,1.131,0.773,1.418,1.043,0.443,0.771,0.729,�쐼,2.2,��
2019/05/10,19:20,0.768,1.128,0.773,1.417,1.039,0.444,0.773,0.730,��,1.4,��
2019/05/10,19:30,0.768,1.127,0.771,1.417,1.041,0.444,0.773,0.729,��,1.2,��
2019/05/10,19:40,0.767,1.128,0.774,1.421,1.039,0.445,0.774,0.730,�k��,1.7,��
2019/05/10,19:50,0.769,1.126,0.773,1.419,1.039,0.444,0.772,0.729,�k��,1.5,��
2019/05/10,20:00,0.769,1.129,0.774,1.417,1.040,0.441,0.774,0.731,�k��,0.9,��
2019/05/10,20:10,0.769,1.127,0.771,1.418,1.038,0.443,0.772,0.731,���쐼,1.4,��
2019/05/10,20:20,0.768,1.129,0.774,1.417,1.040,0.442,0.774,0.729,��,2.0,��
2019/05/10,20:30,0.769,1.128,0.771,1.417,1.039,0.443,0.772,0.731,��,1.7,��
2019/05/10,20:40,0.767,1.129,0.772,1.419,1.039,0.443,0.772,0.730,��,1.4,��
2019/05/10,20:50,0.769,1.127,0.771,1.420,1.038,0.443,0.773,0.730,���k��,1.7,��
2019/05/10,21:00,0.768,1.128,0.772,1.417,1.038,0.442,0.773,0.730,�k��,2.6,��
2019/05/10,21:10,0.767,1.130,0.771,1.419,1.039,0.443,0.772,0.730,�k��,2.5,��
2019/05/10,21:20,0.769,1.127,0.773,1.419,1.037,0.442,0.771,0.728,�k��,1.9,��
2019/05/10,21:30,0.766,1.127,0.772,1.420,1.039,0.443,0.773,0.730,�k�k��,1.5,��
2019/05/10,21:40,0.768,1.127,0.770,1.418,1.039,0.442,0.772,0.729,-,CALM,��
2019/05/10,21:50,0.768,1.126,0.773,1.418,1.038,0.443,0.772,0.728,���쐼,2.0,��
2019/05/10,22:00,0.769,1.124,0.773,1.420,1.038,0.442,0.773,0.727,�쐼,1.7,��
2019/05/10,22:10,0.769,1.125,0.772,1.417,1.039,0.442,0.773,0.729,��쐼,1.4,��
2019/05/10,22:20,0.768,1.126,0.771,1.420,1.040,0.441,0.773,0.729,���쐼,0.9,��
2019/05/10,22:30,0.768,1.126,0.772,1.418,1.039,0.443,0.773,0.729,��,1.2,��
2019/05/10,22:40,0.767,1.126,0.772,1.419,1.038,0.442,0.772,0.728,���쐼,2.1,��
2019/05/10,22:50,0.767,1.125,0.771,1.418,1.037,0.442,0.771,0.728,��,3.3,��
2019/05/10,23:00,0.768,1.127,0.772,1.418,1.038,0.443,0.772,0.729,��,3.1,��
2019/05/10,23:10,0.768,1.125,0.772,1.417,1.038,0.443,0.772,0.729,��,2.2,��
2019/05/10,23:20,0.768,1.125,0.772,1.418,1.039,0.442,0.774,0.729,���쐼,1.2,��
2019/05/10,23:30,0.767,1.124,0.773,1.417,1.038,0.443,0.772,0.730,��쐼,1.3,��
2019/05/10,23:40,0.767,1.126,0.772,1.418,1.037,0.442,0.772,0.729,�쐼,1.7,��
2019/05/10,23:50,0.766,1.123,0.770,1.420,1.037,0.442,0.773,0.729,���쐼,1.4,��
